Kelso, WA

7:48 AM PDT on August 25, 2016 (GMT -0700)
Kelso-Longview

Weather History for KKLS - September, 2012

Change the Weather History Date:

Friday, September 14, 2012

  Actual Average Record
Temperature  
Mean Temperature 65 °F -  
Max Temperature 82 °F 69 °F 89 °F (2014)
Min Temperature 48 °F 49 °F 44 °F (2014)
Growing Degree Days 15 (Base 50)    
Moisture  
Dew Point 51 °F    
Average Humidity 67    
Maximum Humidity 93    
Minimum Humidity 35    
Precipitation  
Precipitation 0.00 in - - ()
Sea Level Pressure  
Sea Level Pressure 30.05 in    
Wind  
Wind Speed 2 mph (NW)    
Max Wind Speed 9 mph    
Max Gust Speed -    
Visibility 10 miles    
Events      
Averages and records for this station are not official NWS values.
T = Trace of Precipitation, MM = Missing Value Source: NWS Daily Summary

Daily Weather History Graph

Daily Weather History Graph

Search for Another Location

Airport or City:

Trip Planner

Search our weather history database for the weather conditions in past years. The results will help you decide how hot, cold, wet, or windy it might be!

Date:

Astronomy

Sep. 14, 2012 Rise Set
Actual Time 6:49 AM PDT 7:23 PM PDT
Civil Twilight 6:19 AM PDT 7:53 PM PDT
Nautical Twilight 5:43 AM PDT 8:29 PM PDT
Astronomical Twilight 5:06 AM PDT 9:06 PM PDT
Moon 5:17 AM PDT (9/14) 6:23 PM PDT (9/14)
Length of Visible Light 13h 34m
Length of Day
12h 34m
Waning Crescent, 2% of the Moon is Illuminated
Sep 14
Waning Crescent
Sep 15
New
Sep 22
First Quarter
Sep 29
Full
Oct 8
Last Quarter

Hourly Weather History & Observations

Time (PDT) Temp. Heat Index Dew Point Humidity Pressure Visibility Wind Dir Wind Speed Gust Speed Precip Events Conditions
12:15 AM 55.4 °F - 50.0 °F 82% 30.08 in 10.0 mi Calm Calm - N/A   Clear
12:35 AM 55.4 °F - 50.0 °F 82% 30.07 in 10.0 mi Calm Calm - N/A   Clear
12:55 AM 55.4 °F - 51.8 °F 88% 30.08 in 10.0 mi Calm Calm - N/A   Clear
1:15 AM 55.4 °F - 48.2 °F 77% 30.08 in 10.0 mi Calm Calm - N/A   Clear
1:35 AM 53.6 °F - 48.2 °F 82% 30.08 in 10.0 mi Calm Calm - N/A   Clear
1:55 AM 53.6 °F - 48.2 °F 82% 30.08 in 10.0 mi Calm Calm - N/A   Clear
2:15 AM 53.6 °F - 48.2 °F 82% 30.08 in 10.0 mi Calm Calm - N/A   Clear
2:35 AM 53.6 °F - 48.2 °F 82% 30.08 in 10.0 mi Calm Calm - N/A   Clear
2:55 AM 53.6 °F - 48.2 °F 82% 30.08 in 10.0 mi Calm Calm - N/A   Clear
3:15 AM 51.8 °F - 48.2 °F 88% 30.08 in 10.0 mi Calm Calm - N/A   Clear
3:35 AM 51.8 °F - 48.2 °F 88% 30.08 in 10.0 mi Calm Calm - N/A   Clear
3:55 AM 50.0 °F - 46.4 °F 87% 30.08 in 10.0 mi Calm Calm - N/A   Clear
4:15 AM 51.8 °F - 46.4 °F 82% 30.08 in 10.0 mi Calm Calm - N/A   Clear
4:35 AM 51.8 °F - 46.4 °F 82% 30.08 in 10.0 mi Calm Calm - N/A   Clear
4:55 AM 50.0 °F - 46.4 °F 87% 30.08 in 10.0 mi Calm Calm - N/A   Clear
5:15 AM 50.0 °F - 46.4 °F 87% 30.07 in 10.0 mi Calm Calm - N/A   Clear
5:35 AM 48.2 °F - 44.6 °F 87% 30.07 in 10.0 mi Calm Calm - N/A   Clear
6:15 AM 48.2 °F - 44.6 °F 87% 30.07 in 10.0 mi Calm Calm - N/A   Clear
6:35 AM 48.2 °F - 46.4 °F 93% 30.07 in 10.0 mi Calm Calm - N/A   Clear
6:55 AM 48.2 °F - 46.4 °F 93% 30.07 in 10.0 mi Calm Calm - N/A   Clear
7:15 AM 48.2 °F - 44.6 °F 87% 30.07 in 9.0 mi Calm Calm - N/A   Clear
7:35 AM 48.2 °F - 44.6 °F 87% 30.08 in 10.0 mi Calm Calm - N/A   Clear
7:55 AM 50.0 °F - 46.4 °F 87% 30.08 in 10.0 mi Calm Calm - N/A   Clear
8:15 AM 51.8 °F - 46.4 °F 82% 30.08 in 10.0 mi Calm Calm - N/A   Clear
8:35 AM 53.6 °F - 48.2 °F 82% 30.08 in 10.0 mi Calm Calm - N/A   Clear
8:55 AM 55.4 °F - 48.2 °F 77% 30.08 in 10.0 mi Calm Calm - N/A   Clear
9:15 AM 57.2 °F - 48.2 °F 72% 30.08 in 10.0 mi Calm Calm - N/A   Clear
9:35 AM 57.2 °F - 50.0 °F 77% 30.08 in 10.0 mi Calm Calm - N/A   Clear
9:55 AM 60.8 °F - 50.0 °F 68% 30.08 in 10.0 mi Calm Calm - N/A   Clear
10:15 AM 62.6 °F - 51.8 °F 68% 30.07 in 10.0 mi NW 3.5 mph - N/A   Clear
10:35 AM 64.4 °F - 51.8 °F 64% 30.07 in 10.0 mi Calm Calm - N/A   Clear
10:55 AM 66.2 °F - 51.8 °F 60% 30.07 in 10.0 mi North 3.5 mph - N/A   Clear
11:15 AM 66.2 °F - 51.8 °F 60% 30.07 in 10.0 mi Calm Calm - N/A   Clear
11:35 AM 68.0 °F - 53.6 °F 60% 30.07 in 10.0 mi NW 4.6 mph - N/A   Clear
11:55 AM 69.8 °F - 53.6 °F 56% 30.06 in 10.0 mi Calm Calm - N/A   Clear
12:15 PM 71.6 °F - 53.6 °F 53% 30.06 in 10.0 mi WSW 4.6 mph - N/A   Clear
12:35 PM 73.4 °F - 53.6 °F 50% 30.05 in 10.0 mi NNW 3.5 mph - N/A   Clear
12:55 PM 75.2 °F - 55.4 °F 50% 30.05 in 10.0 mi WSW 5.8 mph - N/A   Clear
1:15 PM 75.2 °F - 55.4 °F 50% 30.04 in 10.0 mi West 4.6 mph - N/A   Clear
1:35 PM 75.2 °F - 53.6 °F 47% 30.04 in 10.0 mi West 3.5 mph - N/A   Clear
1:55 PM 78.8 °F - 55.4 °F 44% 30.03 in 10.0 mi WNW 3.5 mph - N/A   Clear
2:15 PM 78.8 °F - 53.6 °F 42% 30.03 in 10.0 mi West 4.6 mph - N/A   Clear
2:35 PM 80.6 °F 80.3 °F 53.6 °F 39% 30.02 in 10.0 mi WNW 3.5 mph - N/A   Clear
2:55 PM 80.6 °F 80.3 °F 53.6 °F 39% 30.02 in 10.0 mi WNW 3.5 mph - N/A   Clear
3:15 PM 82.4 °F 81.4 °F 53.6 °F 37% 30.01 in 10.0 mi WNW 4.6 mph - N/A   Clear
3:35 PM 82.4 °F - 51.8 °F 35% 30.00 in 10.0 mi WSW 5.8 mph - N/A   Clear
3:55 PM 82.4 °F - 51.8 °F 35% 30.00 in 10.0 mi West 4.6 mph - N/A   Clear
4:15 PM 82.4 °F 81.4 °F 53.6 °F 37% 30.00 in 10.0 mi West 5.8 mph - N/A   Clear
4:35 PM 82.4 °F 81.4 °F 53.6 °F 37% 30.00 in 10.0 mi WNW 5.8 mph - N/A   Clear
4:55 PM 82.4 °F 81.7 °F 55.4 °F 39% 30.00 in 10.0 mi NW 3.5 mph - N/A   Clear
5:15 PM 80.6 °F - 51.8 °F 37% 29.99 in 10.0 mi WNW 4.6 mph - N/A   Clear
5:35 PM 80.6 °F - 51.8 °F 37% 29.99 in 10.0 mi WNW 6.9 mph - N/A   Clear
5:55 PM 78.8 °F - 53.6 °F 42% 30.00 in 10.0 mi NW 3.5 mph - N/A   Clear
6:15 PM 77.0 °F - 53.6 °F 44% 30.01 in 10.0 mi NW 4.6 mph - N/A   Clear
6:35 PM 75.2 °F - 55.4 °F 50% 30.02 in 10.0 mi WSW 9.2 mph - N/A   Partly Cloudy
6:55 PM 73.4 °F - 55.4 °F 53% 30.00 in 10.0 mi North 3.5 mph - N/A   Partly Cloudy
7:15 PM 71.6 °F - 57.2 °F 60% 30.01 in 10.0 mi NNW 3.5 mph - N/A   Scattered Clouds
7:35 PM 71.6 °F - 55.4 °F 57% 30.02 in 10.0 mi NW 4.6 mph - N/A   Scattered Clouds
7:55 PM 69.8 °F - 55.4 °F 60% 30.03 in 10.0 mi NNW 3.5 mph - N/A   Clear
8:15 PM 68.0 °F - 53.6 °F 60% 30.03 in 10.0 mi WNW 4.6 mph - N/A   Scattered Clouds
8:35 PM 66.2 °F - 53.6 °F 64% 30.05 in 10.0 mi NW 5.8 mph - N/A   Partly Cloudy
8:55 PM 64.4 °F - 53.6 °F 68% 30.05 in 10.0 mi NW 5.8 mph - N/A   Clear
9:35 PM 62.6 °F - 51.8 °F 68% 30.06 in 10.0 mi NNW 3.5 mph - N/A   Partly Cloudy
9:55 PM 60.8 °F - 51.8 °F 72% 30.07 in 10.0 mi NW 4.6 mph - N/A   Scattered Clouds
10:15 PM 60.8 °F - 51.8 °F 72% 30.07 in 10.0 mi NW 5.8 mph - N/A   Clear
10:35 PM 59.0 °F - 51.8 °F 77% 30.08 in 10.0 mi NNW 6.9 mph - N/A   Clear
10:55 PM 57.2 °F - 51.8 °F 82% 30.08 in 10.0 mi NNW 5.8 mph - N/A   Clear
11:15 PM 57.2 °F - 51.8 °F 82% 30.09 in 10.0 mi North 4.6 mph - N/A   Partly Cloudy
11:35 PM 57.2 °F - 51.8 °F 82% 30.09 in 10.0 mi NNW 5.8 mph - N/A   Clear
11:55 PM 57.2 °F - 51.8 °F 82% 30.09 in 10.0 mi North 4.6 mph - N/A   Clear